{"data":{"norad_id":67004,"epoch":"2026-09-20T14:24:59.036256Z","epoch_age_seconds":72974,"freshness":"FRESH","line1":"1 67004U 25293B   26263.60068329  .00002097  00000+0  18342-3 0  9999","line2":"2 67004  70.0011 323.0161 0003754 270.5906  89.4823 14.98335102 44077","mean_motion":14.98335102,"eccentricity":0.0003754,"inclination_deg":70.0011,"raan_deg":323.0161,"arg_perigee_deg":270.5906,"mean_anomaly_deg":89.4823,"bstar":0.00018342,"rev_number":4407,"period_min":96.106671870523,"perigee_km":569.43101698665,"apogee_km":574.64920996345,"semimajor_km":6950.1771134751,"source":"CELESTRAK","updated_at":"2026-09-21T09:00:36.068302Z"}}